Flag for Thailand Weather past 2 weeks in Phuket, Thailand

79 °F

Partly cloudy.

Feels Like: 82 °F
Forecast: 79 / 87 °F
Wind: 2 mph from North

Location: Phuket Airport

Current Time: Oct 10, 2015 at 7:32:41 PM

Latest Report: Oct 10, 2015 at 7:00 PM

Visibility: N/A

Pressure: 29.86 "Hg

Humidity: 89%

Dew point: 75 °F

Location of PhuketLocation

Historic Weather in Phuket — Graph


Phuket temperature yesterday

Maximum temperature yesterday: 88 °F (at 11:30 AM)
Minimum temperature yesterday: 77 °F (at 12:00 AM)
Average temperature yesterday: 82 °F

Past Weeks' High & Low Weather Summary

High88 °F (Oct 1, 10:00 AM)100% (Oct 4, 3:00 PM)29.98 "Hg (Oct 4, 3:00 PM)
Low-15 °F (Oct 4, 3:00 PM)55% (Oct 9, 11:30 AM)29.71 "Hg (Oct 9, 3:00 PM)
Average80 °F82%29.89 "Hg
* Reported Sep 25 6:00 PM — Oct 10 6:30 PM, Phuket, Weather by CustomWeather, © 2015

Note: Actual official high and low records may vary slightly from our data, if they occured in-between our weather recording intervals... More about our weather records


Phuket weather history for previous 24 hours

Time TempWeatherWind HumidityBarometerVisibility
6:30 PM
Sat, Oct 10
81 °FPartly cloudy.3 mph84%29.86 "HgN/A
6:00 PM82 °FBroken clouds.8 mph74%29.83 "HgN/A
5:30 PM82 °FBroken clouds.8 mph74%29.83 "HgN/A
5:00 PM84 °FBroken clouds.9 mph70%29.83 "HgN/A
4:30 PM84 °FBroken clouds.10 mph70%29.83 "HgN/A
4:00 PM84 °FBroken clouds.12 mph70%29.83 "HgN/A
3:30 PM86 °FBroken clouds.9 mph66%29.86 "HgN/A
3:00 PM86 °FBroken clouds.10 mph66%29.86 "HgN/A
2:30 PM86 °FBroken clouds.12 mph66%29.86 "HgN/A
2:00 PM86 °FBroken clouds.12 mph66%29.89 "HgN/A
1:30 PM86 °FBroken clouds.10 mph66%29.89 "HgN/A
1:00 PM86 °FBroken clouds.13 mph66%29.92 "Hg6 mi
12:30 PM86 °FBroken clouds.10 mph66%29.92 "Hg6 mi
12:00 PM86 °FBroken clouds.8 mph66%29.95 "Hg6 mi
11:30 AM86 °FBroken clouds.6 mph66%29.95 "Hg6 mi
11:00 AM84 °FBroken clouds.6 mph66%29.98 "Hg6 mi
10:30 AM84 °FBroken clouds.3 mph66%29.98 "HgN/A
10:00 AM82 °FBroken clouds.3 mph70%29.98 "HgN/A
9:30 AM82 °FBroken clouds.2 mph70%29.95 "Hg6 mi
9:00 AM79 °FBroken clouds.1 mph79%29.95 "Hg5 mi
8:30 AM77 °FLight rain. Broken clouds.3 mph83%29.95 "Hg4 mi
8:00 AM77 °FRain. Broken clouds.7 mph83%29.98 "Hg2 mi
7:30 AM77 °FBroken clouds.No wind94%29.95 "Hg4 mi
7:00 AM77 °FLight rain. Broken clouds.2 mph89%29.92 "Hg4 mi
6:30 AM77 °FRain. Broken clouds.1 mph89%29.92 "Hg2 mi
6:00 AM77 °FRain. Partly cloudy.1 mph89%29.92 "Hg2 mi
5:30 AM77 °FRain. Partly cloudy.1 mph89%29.92 "Hg3 mi
5:00 AM77 °FPartly cloudy.2 mph89%29.89 "Hg5 mi
4:00 AM77 °FPartly cloudy.2 mph89%29.89 "Hg5 mi
3:30 AM75 °FPartly cloudy.2 mph94%29.89 "Hg5 mi
3:00 AM75 °FPartly cloudy.2 mph94%29.89 "Hg5 mi
2:30 AM77 °FPartly cloudy.1 mph89%29.89 "Hg5 mi
2:00 AM75 °FPartly cloudy.2 mph89%29.89 "Hg5 mi
1:30 AM75 °FPartly cloudy.5 mph89%29.92 "Hg5 mi
1:00 AM81 °FPartly cloudy.15 mph79%29.92 "Hg5 mi
12:30 AM77 °FPassing clouds.2 mph94%29.92 "Hg5 mi
12:00 AM79 °FPassing clouds.No wind89%29.92 "Hg5 mi
11:30 PM
Fri, Oct 9
79 °FPassing clouds.No wind89%29.95 "Hg5 mi
11:00 PM79 °FPassing clouds.2 mph89%29.95 "Hg5 mi
10:30 PM81 °FPassing clouds.2 mph84%29.95 "Hg5 mi
9:30 PM82 °FPassing clouds.7 mph79%29.95 "Hg5 mi
9:00 PM82 °FPassing clouds.7 mph79%29.92 "Hg5 mi
8:30 PM81 °FPassing clouds.5 mph84%29.92 "Hg5 mi
8:00 PM82 °FPassing clouds.No wind79%29.89 "Hg6 mi
7:30 PM82 °FPassing clouds.8 mph79%29.86 "Hg6 mi
7:00 PM82 °FPassing clouds.6 mph79%29.86 "Hg6 mi
Weather by CustomWeather, © 2015

See weather overviewHow to use our weather pages